Weather in Larvotto

Monaco     43°44′46″N   7°26′06″E
temp.,
°C
wind,
m/s
gust,
m/s
humid.,
%
clouds,
%
prec.,
mm/h
press.,
hPa
HPBL,
m
11 april, sun
sun1123:00+12ne3490100 8.5 1016280
02:00+12n4468100 11.0 1014248
05:00+11n2275100 2.4 1014190
08:00+11s1177100 3.3 1014230
11:00+11w1179100 0.1 1016202
14:00+12se327752 0.1 1017301
17:00+10e228088 0.0 1017218
20:00+12e227493 0.0 1017252
12 april, mon
mon1223:00+13e227286 0.0 1018447
02:00+13ese1172100 0.0 1018380
05:00+12e2275100 0.1 1015326
08:00+11ene4491100 4.9 1014349
11:00+11ene3486100 7.3 1014385
14:00+11e3386100 8.1 1013378
17:00+11e568197 0.4 1012522
20:00+11e6683100 1.4 1012511
13 april, tue
tue1323:00+11ne3379100 2.1 1013327
02:00+11sw126471 2.3 1014450
05:00+11nnw326140 0.4 1014277
08:00+10wnw226377 0.8 1015349
11:00+11sw3372100 0.3 1016387
14:00+12ssw546876 0.5 1017534
17:00+12ssw336418 0.1 1018624
20:00+11w1170100 0.4 1019292
14 april, wed
wed1423:00+12n226691 0.1 1021216
02:00+11n336298 0.5 1021168
05:00+11ne4363100 0.3 1022716
08:00+9n4373100 1.3 1022433
11:00+9n2277100 1.0 1023286
14:00+9wnw216696 1.4 1022684
17:00+10n3262100 0.1 1021443
20:00+10nnw5462100 0.3 1021454
15 april, thu
thu1523:00+10nnw226148 0.1 1021237
02:00+11ne336065 0.1 1021571
05:00+10ne226642 0.5 1020241
08:00+9n325951 1.0 1021238
11:00+10se215967 0.1 1021379
14:00+11ese555964 0.6 1021723
17:00+10n557367 1.1 1020461
20:00+11nnw335868 1.3 1020385